DECAYED

STARLINK-30475, 57929 (Decayed)

Orbit data source: Space-Track

STARLINK-30475, 57929 was a payload satellite owned by SpaceX/Seattle (US) in LEO that was launched on Sun, 24 Sep 2023 UTC via an FALCON 9 launch vehicle from the Air Force Eastern Test Range (AFETR). Payload-class satellites include a variety of spacecraft equipped with specific instruments for various scientific and technological missions. These include communications satellites like Starlink; space stations such as the ISS; scientific satellites like the Hubble; Earth observation satellites from companies like Planet Labs, Umbra, and HawkEye 360; GPS; miniature CubeSats for education and research; and military/defense satellites.

Not visible in the next 10 days
Identifier
57929, 2023-147S
Orbit
Decayed
Country
Flag of USUS
Related business
Manufacturer
SpaceX/Seattle
Mission
Decayed Commercial Communications
Bus & Motor
STARLINK V2M, Unknown motor
Mass
730 kg wet, ~700 kg dry
Launch date (UTC)
2023-09-24 (3 years ago)
Launch vehicle
FALCON 9
Launch site
Air Force Eastern Test Range (AFETR)
Object type
Payload
Rocket body
Debris
Shape & HBR
Box + 2 Pan, 17.7 m
Radar Cross Section
33.884 m², Large (>1 m²)

Expand to show TLE details & history
Last TLE update: 1 year ago

TLE from 1 year ago
0 STARLINK-30475
1 57929U 23147S   25084.72045287  .24991881  89410-5  62168-2 0  9997
2 57929  42.9769 334.9994 0015210 241.1782 177.6512 16.27746395 85042
Epoch: 2025-03-25T17:17Z
TLE epoch observation values (Epoch: 2025-03-25T17:17:27.127Z)
Latitude
35.82621°
Longitude
-57.39627°
Altitude
210.153 km
Speed
7.78 km/s
True Right ascension
01h 41m 32s
True Declination
35° 38' 59"
Sunlit
Object was in daylight at epoch
Visualization orbit readout
Latitude
Unknown
Longitude
Unknown
Altitude
Unknown
Speed
Unknown
Apparent Right ascension
Unknown
Apparent Declination
Unknown
Sunlit
N/A
Visualization observer readout
Local Sidereal Time
21:29:54
Azimuth
Unknown
Elevation
Unknown
Doppler factor
Unknown
Orbital elements
Apogee altitude
210.642 km
Perigee altitude
190.63 km
Semi-major axis
6,578.773 km
Eccentricity
0.00152
Inclination
42.9769°
RAAN
334.9994°
Arg. of periapsis
241.1782°
True anomaly
177.65833°
Mean anomaly
177.6512°
Eccentric anomaly
177.65477°
Mean motion
4.06748 °/min
Orbital period
88.51 mins
BSTAR
0.0062168
Loading maneuver chart data...
Computing Atmospheric mass density...
Loading historical data...
Loading historical data...
Loading historical data...
Loading historical data...
Loading historical data...
Loading historical data...
Loading historical data...

Documentation

Showing up to 5 results
|